Find Starlink 32792

NORAD ID: 62504 Int'l Des: 2025-003 Owner: SPXS Country: US Constellation: starlink operational
LEOCIRCULAR

Live-Position

3D-Globus wird geladen...

Über Starlink 32792

Beschreibung wird geladen...

Nächste Überflüge

Passes for default location (London). Set your location on the main map for personalized predictions.

Höhenverlauf

Loading altitude history...

Zweizeiliger Elementsatz

1 62504U 25003T 26123.98789096 .00028273 00000-0 10326-2 0 9993
2 62504 43.0026 336.2436 0001659 256.8701 103.1965 15.27593384 75016
Epoch: 3. Mai 2026 • Age: 26 hours

Aktueller Status

Höhe 494.4 km
Geschwindigkeit 7.62 km/s
Subsatellitenpunkt -41.48°S, 31.32°W
Startdatum 6. Jan. 2025
Alter 1.3 years
Typ internet

Technische Details

Klassifizierung Payload
Masse 730.00 kg
Trockenmasse 700.00 kg
Gesamtmasse 730.00 kg
Länge 0.30 m
Durchmesser 4.10 m
Spannweite 29.00 m
Form Box + pan
Hersteller SPXS
Bus-Typ Starlink V2M
Phasenstatus In Orbit
Besitzer/Staat SPXS/US

Most Searched